Location: Staunton
(38.1490°N, 79.0720°W)
Time: 23:26:05
(UTC-04:00)

ISS - Pass Details

Date: 19 March 2018
Orbit: 403 x 408 km, 51.6° (Epoch: 26 September)

Event Time Altitude Azimuth Distance (km) Brightness Sun altitude
Exits shadow 03:59:17 - 75° (ENE) 2,269 0.8 -38.2°
Enters shadow 05:01:50 -55° 297° (WNW) 10,940 3.4 -27.6°
Maximum altitude 05:32:11 53° 36° (NE) 512 -3.1 -22.0°
Sets 05:37:32 0° 120° (ESE) 2,329 0.7 -21.0°
